Flag for Germany Weather past 2 weeks in Dillenburg, Hesse, Germany

Now
67 °F

Overcast.


Feels Like: 67 °F
Forecast: 61 / 85 °F
Wind: 1 mph from Northwest

Location: Giessen

Current Time: Aug 31, 2015 at 1:33:18 AM

Latest Report: Aug 31, 2015 at 1:00 AM


Visibility: 7 mi

Pressure: 29.99 "Hg

Humidity: 95%

Dew point: 65 °F

Location of DillenburgLocation

Historic Weather in Dillenburg — Graph

°F

Dillenburg temperature yesterday

Maximum temperature yesterday: 90 °F (at 4:00 PM)
Minimum temperature yesterday: 63 °F (at 6:00 AM)
Average temperature yesterday: 75 °F

Past Weeks' High & Low Weather Summary

 TemperatureHumidityPressure
High90 °F (Aug 30, 4:00 PM)100% (Aug 21, 8:00 AM)30.30 "Hg (Aug 21, 8:00 AM)
Low49 °F (Aug 19, 7:00 AM)28% (Aug 23, 5:00 PM)29.65 "Hg (Aug 24, 5:00 PM)
Average64 °F75%30.00 "Hg
* Reported Aug 15 11:00 PM — Aug 30 11:00 PM, Dillenburg, Weather by CustomWeather, © 2015

Note: Actual official high and low records may vary slightly from our data, if they occured in-between our weather recording intervals... More about our weather records

Advertising

Dillenburg weather history for previous 24 hours

 ConditionsComfort  
Time TempWeatherWind HumidityBarometerVisibility
11:00 PM
Sun, Aug 30
71 °FOvercast.1 mph88%30.00 "Hg16 mi
10:00 PM73 °FOvercast.2 mph83%30.00 "Hg19 mi
9:00 PM75 °FOvercast.1 mph83%29.99 "Hg19 mi
8:00 PM83 °FOvercast.1 mph55%29.97 "Hg28 mi
7:00 PM88 °FOvercast.2 mph44%29.96 "Hg34 mi
6:00 PM87 °FOvercast.3 mph49%29.96 "Hg37 mi
5:00 PM90 °FOvercast.5 mph44%29.97 "Hg28 mi
4:00 PM90 °FSunny.6 mph41%29.98 "Hg18 mi
3:00 PM89 °FSunny.3 mph46%29.99 "Hg25 mi
2:00 PM86 °FSunny.3 mph55%30.01 "Hg19 mi
1:00 PM84 °FSunny.2 mph57%30.03 "Hg22 mi
12:00 PM80 °FSunny.2 mph64%30.05 "Hg25 mi
11:00 AM76 °FSunny.1 mph71%30.06 "Hg28 mi
10:00 AM73 °FSunny.3 mph80%30.07 "Hg19 mi
9:00 AM69 °FSunny.2 mph87%30.08 "Hg16 mi
8:00 AM65 °FSunny.1 mph94%30.08 "Hg6 mi
7:00 AM63 °FFog.1 mph99%30.07 "Hg3 mi
6:00 AM63 °FFog.1 mph99%30.07 "Hg4 mi
5:00 AM64 °FClear.2 mph97%30.07 "Hg6 mi
4:00 AM65 °FOvercast.3 mph96%30.08 "Hg7 mi
3:00 AM64 °FPassing clouds.2 mph97%30.10 "Hg6 mi
2:00 AM65 °FClear.1 mph97%30.10 "Hg8 mi
1:00 AM65 °FClear.1 mph96%30.11 "Hg7 mi
Weather by CustomWeather, © 2015

See weather overviewHow to use our weather pages